{"data":{"norad_id":54138,"epoch":"2026-09-20T01:15:34.302240Z","epoch_age_seconds":65786,"freshness":"FRESH","line1":"1 54138U 22138AB  26263.05248035 -.00000011  00000+0 -60120-4 0  9999","line2":"2 54138  87.9110 286.0696 0001904  83.8650 276.2700 13.19725338189330","mean_motion":13.19725338,"eccentricity":0.0001904,"inclination_deg":87.911,"raan_deg":286.0696,"arg_perigee_deg":83.865,"mean_anomaly_deg":276.27,"bstar":-6.012e-5,"rev_number":18933,"period_min":109.11361315395,"perigee_km":1184.3290927645,"apogee_km":1187.2094282685,"semimajor_km":7563.9062605165,"source":"CELESTRAK","updated_at":"2026-09-20T09:00:44.720377Z"}}